User: anonymous   Login
Location: Vancouver
(49.2500°N, 123.1330°W)
Time: 18:28:54
(UTC-07:00)
Language:

JAS-1B - Orbit

View from above orbital plane
View from above orbital plane
View from above satellite
View from above satellite

Ground track
Ground track

The orbit data is extracted from the following two-line orbital elements,

1 20480U 90013C   15212.55298834 -.00000019  00000-0  24705-4 0  9995
2 20480 099.0623 104.4207 0540640 146.9985 290.0688 12.83406300193647
Epoch (UTC): 31 July 2015 13:16:18
Eccentricity: 0.0540640
inclination: 99.0623°
perigee height: 911 km
apogee height: 1744 km
right ascension of ascending node: 104.4207°
argument of perigee: 146.9985°
revolutions per day: 12.83406300
mean anomaly at epoch: 290.0688°
orbit number at epoch: 19364

The dashed part of the orbit path shows where the satellite is in the earth's shadow,  

DLR